Location: Croissy-Beaubourg
(48.8283°N, 2.6696°E)
Time: 21:52:39
(UTC+00:00)

Cosmos 2082 - Pass Details

Date: 25 August 2022
Orbit: 832 x 856 km, 71.0° (Epoch: 28 September)

Event Time Altitude Azimuth Distance (km) Brightness Sun altitude
Rises 01:39:51 0° 332° (NNW) 3,413 7.3 -25.8°
Reaches altitude 10° 01:42:18 10° 333° (NNW) 2,478 6.5 -25.6°
Maximum altitude 01:48:01 81° 62° (ENE) 867 3.7 -25.1°
Enters shadow 01:50:32 35° 145° (SE) 1,344 4.5 -24.9°
